Wind_Speed
12 11 11 10 9 9 7 6 5 4 3 3 3 4 5 6 7 8 9 10 11 12 13 14 15 16 17 18 19 19 19 19 20 20 20 20 20 20 20 20 20 20 20 21 21 21 22 22 23 23 24 25 25 26 27 28 29 30 30 30 30 29 28 27 27 26 26 26 26
13 12 11 10 9 8 7 5 4 3 2 2 3 4 5 6 8 9 10 11 11 12 13 14 15 16 17 18 19 19 19 19 19 19 19 19 19 19 19 20 20 20 20 20 21 21 22 23 23 24 25 26 27 28 28 29 30 30 30 30 29 28 28 27 26 26 26 26 26
12 11 10 10 9 7 6 4 3 2 2 2 3 5 6 7 8 10 11 11 12 13 14 15 16 17 17 18 19 19 19 19 19 19 19 19 19 19 19 19 19 20 20 20 21 22 23 23 24 25 26 27 28 29 30 30 30 30 30 29 29 28 27 26 26 26 26 26 27
11 10 10 9 8 6 5 3 2 1 1 3 4 5 7 8 9 10 11 12 13 13 14 15 16 17 18 18 19 19 19 19 19 19 19 18 18 18 19 19 19 19 20 21 21 22 23 24 26 27 28 29 30 30 30 30 30 30 29 28 28 27 26 26 26 26 27 27 28
11 10 10 9 7 6 4 2 1 0 2 4 5 6 8 9 10 11 12 13 13 14 15 15 16 17 18 18 19 19 19 19 19 18 18 18 18 18 18 18 19 20 20 21 22 23 25 26 27 28 29 29 30 30 30 30 29 29 28 27 27 26 26 26 27 27 28 28 29
11 11 9 8 6 5 3 1 1 2 3 5 6 7 8 9 10 11 12 13 13 14 15 16 16 17 18 19 19 19 19 19 18 18 18 17 17 18 18 18 19 20 21 22 23 24 26 27 28 29 29 30 30 29 29 28 28 27 27 27 26 26 26 27 27 28 29 29 30
11 11 9 7 5 4 2 2 2 3 4 5 6 8 9 10 11 11 12 13 14 14 15 16 17 18 18 19 19 19 19 18 18 17 17 17 17 18 18 19 20 21 22 23 25 26 27 28 29 29 29 29 29 28 28 27 27 26 27 27 27 27 27 28 28 29 29 30 31
11 10 8 6 5 3 2 2 3 4 5 6 7 8 9 10 11 11 12 13 14 15 16 17 17 18 19 19 19 19 18 18 17 17 17 17 18 18 19 20 21 22 23 25 26 27 27 28 28 28 28 28 27 27 26 26 26 26 27 27 28 28 28 28 29 29 30 31 32
11 9 8 6 5 4 3 3 4 5 6 7 8 9 9 10 11 11 12 13 14 15 16 17 18 18 19 19 19 18 18 17 17 17 17 18 18 19 20 21 23 24 25 26 27 27 28 28 28 27 26 26 26 26 25 25 26 26 27 28 29 29 29 29 30 30 31 32 33
11 9 8 6 5 4 4 4 4 5 6 7 8 9 10 10 11 12 12 14 15 16 17 17 18 18 19 19 18 18 17 17 17 17 18 19 20 21 22 23 24 25 26 26 27 27 27 27 26 26 25 25 25 25 25 26 26 27 28 28 29 30 30 30 30 31 32 33 34
11 10 8 7 6 5 4 4 4 5 7 8 9 10 10 10 11 12 13 14 15 16 17 18 18 18 18 18 17 17 17 17 17 18 19 20 21 22 23 24 25 26 27 27 27 26 26 26 25 25 24 24 25 25 26 26 27 28 29 29 30 30 31 31 31 31 32 34 35
11 10 8 7 6 5 5 4 5 6 7 8 9 10 10 11 11 12 13 14 15 16 17 18 18 18 17 17 17 16 17 17 18 19 20 21 22 23 24 25 26 26 26 26 26 25 25 24 24 25 25 25 26 26 27 27 28 29 29 30 30 30 31 31 32 32 33 34 35
11 10 9 7 6 6 5 5 5 6 7 8 9 10 10 11 12 13 13 14 15 16 17 17 17 17 17 16 16 17 17 18 19 20 21 22 23 24 25 25 26 26 26 25 25 24 24 24 24 25 26 26 27 27 27 28 28 29 30 30 30 31 31 32 32 33 34 35 36
11 10 9 8 7 6 5 6 6 7 8 9 9 10 11 11 12 13 14 15 16 16 17 17 16 16 16 16 16 17 18 19 20 21 22 23 24 25 25 26 25 25 25 24 24 24 24 24 25 26 27 27 28 28 28 28 28 29 29 30 30 31 32 32 33 34 35 36 36
11 10 9 8 7 6 6 6 7 8 8 9 10 10 11 11 12 13 14 15 16 16 16 16 16 16 16 16 17 18 19 20 21 22 23 24 25 25 25 25 25 25 24 24 24 24 24 25 26 26 27 28 28 28 28 28 28 29 29 29 30 31 32 33 33 34 35 36 36
11 10 9 8 7 7 7 7 8 8 9 9 10 10 11 11 12 13 14 15 15 16 16 15 15 15 16 17 18 19 20 21 22 23 24 25 25 25 25 25 24 24 24 24 24 24 25 25 26 27 27 28 28 29 29 28 28 29 29 29 30 31 32 33 33 34 35 35 36
11 10 9 8 7 7 7 8 8 9 9 10 10 10 11 12 13 14 14 15 15 15 15 15 15 16 16 17 18 20 21 22 23 24 25 25 25 25 25 24 24 24 24 25 25 26 26 26 27 27 28 28 28 28 28 28 29 29 29 30 30 31 32 32 33 34 34 35 36
12 10 9 9 8 8 8 9 9 9 10 10 10 11 11 12 13 14 14 15 15 15 15 15 16 16 17 18 20 21 22 23 24 24 25 25 25 24 24 24 24 24 24 25 26 26 27 27 28 28 28 28 28 28 28 28 28 29 29 30 30 31 32 32 33 33 34 36 37
12 11 10 9 9 9 9 9 10 10 10 10 10 11 11 12 13 14 14 15 15 15 15 15 16 17 18 19 21 22 23 23 24 24 24 24 24 24 24 24 24 24 25 26 26 27 27 28 28 28 28 28 28 28 28 28 28 29 30 30 31 31 32 32 33 33 34 36 37
12 11 10 10 9 9 9 10 10 10 10 11 11 11 11 12 13 13 14 14 15 15 15 16 17 18 19 20 21 22 23 24 24 24 24 24 24 23 24 24 25 25 26 26 27 27 28 28 29 29 28 28 28 28 28 28 29 29 30 30 31 31 32 33 34 34 35 36 37
12 11 11 10 10 10 10 10 10 11 11 11 11 11 12 12 13 13 14 14 14 15 15 16 18 19 20 21 22 23 23 24 24 24 23 23 23 23 24 24 25 26 26 27 27 28 28 28 29 28 28 28 28 28 28 29 29 30 30 31 31 32 33 33 34 35 36 36 37
12 11 11 10 10 10 10 10 11 11 11 11 11 11 12 12 13 13 13 14 14 15 16 17 19 20 21 22 23 23 24 24 23 23 23 23 23 23 24 25 26 26 27 27 28 28 28 29 28 28 28 28 28 28 28 28 29 30 31 31 32 33 33 34 35 35 36 36 35
12 11 11 10 10 10 10 11 11 11 11 11 11 11 12 12 13 13 13 14 14 15 17 18 20 21 22 23 23 24 24 24 23 23 23 23 23 24 24 25 26 27 27 27 28 28 28 29 28 28 27 27 27 28 28 28 29 30 31 32 33 33 34 35 35 35 35 34 33
12 11 10 10 9 10 10 11 11 11 11 11 11 11 12 12 12 13 13 14 15 16 18 19 20 21 22 23 23 23 23 23 23 23 23 23 24 24 25 26 26 27 27 27 28 28 27 27 27 27 27 27 27 27 28 28 29 30 31 32 33 34 34 35 34 34 34 33 32
11 10 10 9 9 10 11 11 11 10 10 10 11 11 12 12 12 12 13 14 15 17 19 20 21 22 22 23 23 23 23 23 23 24 24 24 25 25 26 26 27 27 27 27 27 27 27 26 26 26 26 26 27 27 28 28 29 30 31 32 33 34 34 34 34 34 33 32 31
10 10 9 9 9 10 10 10 10 10 10 10 10 11 11 11 12 13 14 15 16 18 19 20 21 22 22 23 23 23 23 23 23 24 25 25 26 26 27 27 27 27 27 27 27 27 26 25 25 24 25 26 27 27 28 29 29 30 31 32 32 33 33 34 34 33 32 30 29
9 9 9 9 9 10 10 10 10 9 9 9 10 10 11 11 12 13 14 16 17 19 20 21 21 22 22 23 23 23 23 23 24 24 25 26 26 27 27 27 27 27 27 27 27 27 26 26 25 24 24 25 26 27 28 29 30 30 31 31 31 32 32 32 32 32 31 30 28
9 9 9 9 9 9 9 9 9 9 9 9 10 10 11 11 12 14 15 17 18 19 20 21 22 22 22 23 23 23 23 24 24 25 26 26 27 27 27 28 27 27 27 27 27 27 26 26 25 25 25 25 26 27 28 29 30 30 30 30 31 31 31 31 30 30 29 29 29
8 9 9 9 9 9 9 8 8 8 9 9 9 10 11 12 13 15 16 17 19 20 21 21 22 22 23 23 23 24 24 25 25 26 26 27 27 27 27 27 27 27 27 27 27 27 26 26 25 25 25 25 26 27 27 28 29 30 30 30 30 30 30 29 28 28 27 28 29
8 9 9 9 8 8 8 8 8 8 8 9 9 10 11 12 14 15 17 18 19 20 21 22 22 22 23 23 24 24 25 25 26 26 26 27 27 28 28 28 28 28 28 27 27 27 26 26 26 26 26 26 26 26 27 28 28 29 29 30 29 28 28 27 27 27 27 28 29
9 9 8 8 8 7 7 7 7 8 8 8 9 10 11 13 14 16 17 18 19 20 21 22 22 23 23 24 24 25 25 26 26 26 27 27 27 28 28 28 28 28 28 28 27 27 27 26 26 26 26 26 26 26 27 28 28 29 29 28 28 27 26 26 27 27 28 28 29
9 8 8 8 7 7 7 7 7 7 8 8 9 11 12 13 15 16 17 19 20 20 21 22 23 24 24 25 25 26 26 26 26 27 27 27 27 28 28 28 28 28 28 28 27 27 27 26 26 26 26 26 26 26 27 27 28 28 28 27 26 26 26 27 27 27 28 28 28
8 8 8 7 7 7 6 6 6 7 8 9 10 11 12 14 15 16 18 19 20 21 22 23 24 24 25 26 26 26 27 27 27 27 27 27 27 28 28 28 28 28 28 28 27 27 27 26 26 26 26 26 26 26 27 27 27 27 27 26 26 26 26 27 27 27 27 28 28
8 7 7 7 7 6 6 6 6 7 8 9 10 11 13 14 15 17 18 19 20 21 22 23 24 25 25 26 26 27 27 27 27 27 27 27 27 28 28 28 28 28 28 28 27 27 27 26 26 25 25 26 26 26 27 27 27 27 26 26 26 26 26 27 27 27 28 28 28
7 7 7 7 6 6 5 5 6 7 8 9 10 12 13 14 16 17 18 20 21 22 23 24 25 25 26 26 27 27 27 27 27 27 27 27 28 28 29 29 29 28 28 27 27 27 26 26 25 25 25 25 26 26 27 26 26 26 26 26 26 26 27 27 28 28 28 28 28
7 7 7 6 6 5 5 5 6 7 8 10 11 12 13 15 16 18 19 21 22 23 24 25 25 26 26 27 27 27 27 27 28 28 27 28 28 29 29 29 29 29 28 27 27 26 26 25 25 25 25 26 26 26 26 26 25 26 26 26 26 27 27 28 28 28 27 27 28
7 7 6 6 5 5 5 6 7 8 9 10 11 13 14 15 17 18 20 21 23 24 25 25 26 26 27 27 28 27 27 27 27 28 28 28 28 29 29 30 29 29 28 28 27 26 25 25 24 25 25 26 26 26 26 26 26 26 26 26 27 27 28 28 28 28 27 28 29
7 6 6 5 5 4 5 6 7 8 9 11 12 13 15 16 18 19 21 22 24 25 26 26 27 27 28 28 28 28 28 27 27 28 28 28 28 29 29 30 30 29 28 28 27 26 26 25 25 25 25 25 25 26 26 26 26 26 26 27 27 28 28 27 27 27 28 29 31
6 6 5 5 4 5 6 7 8 9 10 11 13 14 15 17 18 20 22 23 24 25 26 27 27 28 28 28 29 28 28 27 27 27 28 28 28 28 29 30 30 29 29 28 28 27 26 25 25 25 24 24 25 25 26 26 26 26 27 27 28 28 28 26 26 27 29 32 33
6 6 5 4 4 5 6 7 8 9 11 12 13 15 16 18 19 21 22 24 25 26 27 27 28 28 29 29 29 29 29 28 28 27 27 28 28 28 29 29 30 29 29 29 28 28 27 26 25 24 24 24 24 25 26 26 27 27 27 27 28 28 29 28 29 30 32 34 35
6 5 5 4 5 5 6 8 9 10 11 13 14 16 17 19 20 22 23 24 25 26 27 28 28 29 29 29 29 29 29 29 28 28 28 28 28 29 29 29 30 30 30 29 29 29 28 26 25 24 24 24 24 25 25 26 26 27 28 28 29 29 30 32 32 33 34 35 36
Wind_Direction
184 182 180 179 181 181 178 172 159 140 113 82 53 32 19 10 2 358 356 353 350 347 345 344 344 343 342 340 338 335 333 331 329 328 327 327 326 326 325 325 324 324 324 324 324 324 324 324 323 324 323 323 324 324 324 324 325 325 325 325 325 325 325 325 324 323 323 322 322
186 185 184 185 187 187 184 175 159 132 96 56 30 15 5 360 356 354 351 349 346 344 342 342 341 340 339 336 334 332 330 329 328 327 326 326 326 325 325 325 324 324 324 324 324 324 324 324 323 324 324 323 324 324 325 325 325 325 324 325 325 325 325 324 324 323 323 323 323
190 191 191 193 194 191 185 173 154 124 78 34 11 2 356 353 350 349 347 344 342 341 340 339 338 337 335 334 331 330 328 327 326 326 326 326 325 325 325 325 325 325 325 325 325 324 324 324 324 324 324 324 324 325 325 325 325 325 324 324 324 325 324 324 324 324 324 324 324
195 196 197 198 196 193 187 179 160 115 34 4 354 351 349 347 346 344 342 340 339 338 337 336 335 334 332 331 329 327 326 325 325 325 325 325 325 325 325 325 325 325 325 325 325 325 325 325 325 325 325 325 325 325 325 325 325 324 324 324 324 325 325 325 325 325 325 324 324
197 200 201 202 202 200 198 198 194 347 345 344 345 345 344 344 342 341 340 338 337 336 334 333 332 331 329 328 327 326 325 324 325 325 325 326 326 326 326 326 326 326 325 326 325 325 325 325 326 326 326 325 325 325 325 325 324 324 324 324 325 325 325 325 325 325 325 324 324
201 203 205 207 208 211 215 233 286 323 331 335 340 342 342 341 340 338 337 335 334 333 332 330 329 328 327 326 325 324 324 324 324 325 326 326 327 327 327 327 327 326 326 326 326 326 326 326 326 326 325 325 325 325 325 325 325 324 324 325 325 326 326 326 326 325 324 323 322
206 208 209 211 213 218 233 267 302 318 326 330 336 339 339 338 337 335 333 332 331 330 329 328 327 327 325 324 324 323 324 324 325 326 327 327 328 328 328 328 327 328 327 327 327 327 326 326 326 325 325 325 325 325 325 325 325 325 325 325 326 326 326 326 325 325 323 322 320
211 213 214 216 219 226 244 276 301 313 322 327 331 334 335 335 334 332 331 330 329 328 327 327 326 325 324 323 323 323 323 324 326 327 328 329 329 329 329 328 328 328 328 328 327 327 326 325 325 325 325 325 325 325 326 326 326 326 326 326 326 326 326 326 325 323 322 320 318
214 216 218 221 225 233 251 275 295 309 317 323 328 331 332 332 331 330 328 327 326 326 326 326 325 324 323 322 322 323 324 325 327 328 329 330 330 330 329 329 329 329 328 328 327 326 325 325 325 325 325 325 326 326 327 328 327 327 326 326 326 326 325 325 324 322 320 318 317
217 218 220 222 227 237 255 277 295 307 316 322 326 329 331 331 329 328 327 326 326 326 325 325 324 323 322 322 322 323 325 327 328 330 330 331 331 331 330 330 329 329 328 327 327 326 325 325 325 326 326 327 328 328 328 328 328 327 326 326 325 325 324 323 322 320 318 316 315
220 221 221 224 230 242 260 278 295 308 316 322 326 328 329 328 327 326 326 326 326 325 324 323 322 322 321 321 323 324 326 328 329 330 331 331 331 331 331 330 329 329 328 327 327 326 326 326 327 328 328 329 329 329 329 329 328 327 326 325 324 324 323 322 321 319 316 315 314
221 222 224 229 236 249 263 280 296 308 316 321 323 325 326 325 325 325 325 325 324 323 323 322 322 321 321 322 324 326 327 329 330 331 332 332 332 332 331 330 329 328 328 327 327 328 328 329 329 330 330 330 330 330 330 329 328 326 325 324 324 323 321 320 319 317 315 314 314
222 224 227 233 241 254 268 284 297 307 314 319 320 322 323 323 323 324 324 323 323 323 322 322 321 321 322 323 325 327 328 330 331 332 333 333 332 332 331 330 329 328 328 328 329 329 331 331 332 332 331 331 330 330 329 328 327 326 324 324 323 321 320 319 317 316 315 314 314
223 226 230 237 246 260 275 289 300 308 313 317 318 320 321 322 322 322 322 322 322 322 322 322 321 322 323 325 327 328 330 331 333 333 333 333 332 332 331 330 329 329 329 330 331 332 333 333 333 333 332 331 330 329 329 327 326 325 324 323 322 320 319 318 317 316 315 315 315
224 227 232 240 252 266 281 293 301 308 312 315 316 318 320 320 320 320 321 321 322 322 322 322 322 323 324 326 328 330 332 333 334 334 334 333 332 331 331 330 330 330 331 331 332 333 334 334 334 333 332 330 329 328 328 327 326 324 323 322 321 320 318 317 316 315 315 315 315
225 229 234 243 256 271 285 295 303 308 311 313 316 317 318 318 318 319 320 320 321 322 322 322 323 324 326 328 331 333 334 335 335 335 334 333 332 331 331 331 331 332 333 333 334 334 335 334 334 333 331 330 328 327 327 326 325 324 323 322 321 319 318 316 315 315 314 314 314
227 231 237 247 261 274 287 297 303 308 310 313 315 316 317 317 317 318 319 320 322 323 323 323 324 326 328 331 333 335 336 336 336 335 334 333 332 332 332 332 333 334 335 335 335 335 335 334 333 332 330 329 328 327 326 326 325 324 323 321 320 318 316 315 314 313 313 313 313
228 234 241 252 264 277 288 297 302 307 310 312 314 315 316 316 317 318 320 321 323 324 324 325 327 329 332 334 336 337 337 336 336 335 334 333 333 333 333 334 335 335 336 336 336 336 335 334 332 331 330 328 327 327 326 326 325 323 322 320 318 316 315 313 313 312 312 312 313
231 237 246 256 267 278 288 296 302 306 310 312 314 316 316 317 318 319 321 323 324 325 326 327 329 332 335 336 337 338 337 337 336 335 334 334 334 334 335 335 336 336 337 337 336 335 334 333 332 330 329 328 327 327 326 325 323 321 319 317 316 314 313 312 311 311 311 312 313
234 241 251 261 271 281 290 297 302 307 310 313 316 317 318 318 319 320 322 324 326 327 329 330 333 335 337 338 338 338 338 337 336 335 335 335 335 336 336 337 337 337 337 336 336 335 333 332 331 330 330 329 328 327 326 324 321 319 317 315 314 313 312 311 311 311 311 312 314
237 246 255 265 274 283 291 298 303 308 312 316 318 319 319 319 320 322 324 326 328 329 331 333 336 338 339 339 339 338 337 336 336 336 336 336 336 337 337 338 338 337 337 336 335 334 333 332 331 331 330 329 328 326 324 321 319 317 315 313 312 311 311 311 311 311 312 314 315
242 250 259 268 277 286 294 301 306 311 315 318 320 320 319 319 321 323 326 328 330 332 334 336 339 340 341 340 339 338 337 336 336 336 336 337 338 338 338 338 338 337 337 336 335 334 333 332 332 331 330 328 326 323 321 318 316 315 313 312 311 310 310 311 312 313 314 315 318
247 255 263 271 280 289 298 304 309 314 318 320 320 320 319 320 322 325 328 330 332 335 337 340 341 342 342 341 339 338 337 336 336 337 337 338 338 339 339 339 338 337 337 336 335 334 333 333 332 331 329 326 323 320 318 316 315 313 312 311 311 311 311 312 313 314 316 318 320
250 258 265 274 283 293 301 308 312 316 319 320 319 318 318 320 323 327 330 332 335 338 341 342 343 343 342 340 339 338 337 337 337 338 338 339 340 340 340 339 338 337 336 335 335 334 334 333 331 329 326 323 320 318 316 315 313 312 312 311 311 312 312 313 314 316 318 320 322
253 260 268 277 287 297 305 310 315 318 319 318 317 317 318 321 325 329 332 335 339 342 344 344 344 343 341 340 339 338 338 338 339 339 340 340 341 340 340 339 338 337 336 335 335 334 334 332 329 326 323 320 318 316 315 314 312 312 311 311 312 313 314 315 316 318 320 322 323
255 262 270 281 291 300 307 312 315 318 317 317 316 317 320 325 328 332 336 339 342 345 345 345 343 342 341 339 339 339 339 340 341 341 341 341 341 341 340 339 338 337 336 335 335 334 333 331 329 325 321 319 317 316 314 313 312 312 312 312 313 314 315 316 318 319 321 322 323
257 265 275 285 295 302 308 313 316 316 315 314 316 319 323 328 332 336 340 343 345 346 346 345 343 342 341 340 340 340 341 342 342 343 342 342 341 340 339 339 338 337 336 335 335 334 333 331 329 325 321 319 317 315 314 313 312 312 313 313 314 315 315 317 318 319 320 321 321
260 269 279 289 297 303 308 312 313 313 313 314 318 322 328 332 336 340 344 346 347 347 346 344 343 342 341 341 341 342 343 343 344 343 343 342 341 340 339 338 337 337 337 336 335 334 333 331 328 325 321 319 317 315 314 313 313 313 313 314 314 315 315 316 317 318 319 319 319
264 273 282 290 297 303 308 310 310 310 312 315 321 327 332 336 341 344 346 348 348 347 346 344 343 343 343 343 343 344 344 345 344 344 343 342 340 340 339 338 338 337 337 336 335 335 333 330 327 324 321 319 317 316 314 314 313 314 314 314 314 314 315 315 316 317 317 317 318
268 276 283 291 297 303 306 307 307 308 312 319 325 332 336 340 344 347 348 348 348 347 346 345 344 344 344 344 345 345 345 345 345 344 343 341 340 339 339 339 338 338 337 337 336 334 332 329 326 323 321 320 318 316 315 314 313 313 313 313 313 313 314 314 315 315 316 316 317
271 278 285 292 298 301 302 302 304 309 315 323 330 335 340 344 347 348 349 348 348 347 346 345 345 345 346 346 346 346 346 346 345 344 343 342 340 340 339 339 339 338 338 337 336 334 332 329 326 323 322 320 319 317 315 314 313 313 313 313 313 313 313 313 314 315 315 316 317
275 282 288 294 296 297 297 299 304 312 320 328 334 339 343 347 348 349 349 348 347 347 346 346 346 347 347 348 348 347 347 346 345 344 343 342 341 340 340 340 339 339 338 337 336 334 331 328 326 324 323 321 319 317 315 314 314 313 313 313 313 313 313 313 314 315 316 316 317
278 285 289 291 291 291 293 298 307 317 326 332 337 342 345 348 349 348 348 347 347 347 347 348 348 349 349 349 349 348 347 346 345 344 344 343 342 340 340 340 340 339 339 337 335 333 331 328 326 325 324 322 320 317 316 315 315 314 314 313 313 313 313 314 315 315 316 317 317
281 285 286 285 283 284 290 299 311 322 330 336 340 344 347 348 348 347 347 347 347 348 348 349 350 350 350 350 349 348 347 346 345 345 344 343 342 341 340 340 340 340 339 337 335 333 331 329 327 326 325 323 321 319 318 317 316 315 314 314 314 314 314 315 315 316 316 316 317
280 281 278 276 276 279 290 303 317 326 333 338 342 345 347 347 347 346 346 346 347 348 349 350 351 351 350 350 349 348 347 346 345 345 345 344 342 341 340 340 340 340 339 338 335 333 331 330 329 328 326 324 322 321 320 319 317 316 315 315 314 315 315 316 317 317 317 317 317
275 272 270 268 271 279 294 310 322 330 335 340 343 345 345 345 345 345 346 346 347 349 350 351 351 351 350 349 348 348 347 347 346 345 345 344 343 341 340 340 340 341 340 338 336 334 332 331 330 330 328 326 324 322 321 319 317 316 315 315 316 316 317 317 317 317 317 318 318
269 265 262 263 270 284 302 316 325 332 338 341 343 343 343 343 344 345 345 347 348 349 350 351 351 351 350 349 348 348 348 348 347 345 345 344 343 341 340 340 340 341 340 339 337 335 334 333 333 331 329 327 325 323 321 319 317 316 316 316 316 317 318 318 318 318 319 319 320
262 257 256 260 272 291 308 321 329 335 339 341 342 342 342 342 343 345 346 348 349 349 350 350 350 350 349 348 348 348 348 348 347 346 344 344 343 342 340 339 340 340 340 340 338 337 336 335 334 332 329 327 325 323 321 319 318 317 317 317 318 318 319 319 319 319 319 319 321
256 252 252 260 277 299 315 326 333 337 340 340 340 340 340 342 343 345 347 349 349 350 350 350 350 349 349 348 347 347 347 348 347 346 345 343 343 342 341 339 340 340 341 340 339 338 338 336 334 332 330 328 326 324 322 320 319 318 318 319 319 319 320 321 320 320 319 320 323
251 247 251 264 285 306 321 330 336 339 339 339 339 339 340 342 344 346 347 349 349 349 349 349 349 349 349 348 347 346 346 346 347 346 345 343 342 342 341 340 340 340 341 341 340 339 338 336 334 332 330 328 326 324 322 320 320 319 320 320 321 321 321 321 321 320 320 322 325
247 246 254 272 296 315 328 334 337 338 338 339 339 340 341 343 344 346 347 348 348 349 348 348 348 348 348 348 347 346 345 345 345 345 344 343 342 342 342 342 341 341 341 341 341 340 338 336 334 332 330 329 327 325 323 321 321 321 321 321 321 321 321 321 321 321 323 326 326
Height
1491 1491 1492 1492 1492 1493 1493 1493 1493 1493 1493 1492 1492 1492 1492 1492 1492 1492 1491 1491 1491 1490 1490 1489 1488 1488 1487 1486 1486 1485 1484 1483 1482 1481 1480 1479 1478 1478 1477 1476 1475 1474 1473 1473 1472 1471 1470 1469 1469 1468 1467 1466 1465 1464 1463 1463 1461 1460 1459 1458 1457 1456 1454 1453 1452 1451 1450 1449 1448
1491 1491 1491 1492 1492 1492 1492 1492 1492 1492 1492 1492 1492 1492 1492 1491 1491 1491 1491 1490 1490 1489 1489 1488 1488 1487 1487 1486 1485 1484 1483 1483 1482 1481 1480 1479 1478 1477 1476 1475 1474 1473 1473 1472 1471 1470 1469 1468 1468 1467 1466 1465 1464 1463 1462 1461 1460 1458 1457 1456 1455 1454 1453 1452 1451 1449 1448 1448 1446
1490 1490 1491 1491 1491 1491 1491 1491 1491 1491 1491 1491 1491 1491 1491 1491 1490 1490 1490 1490 1489 1489 1488 1488 1487 1487 1486 1485 1484 1483 1483 1482 1481 1480 1479 1478 1477 1476 1475 1474 1473 1473 1472 1471 1470 1469 1468 1467 1466 1465 1464 1463 1462 1461 1460 1459 1458 1457 1455 1454 1453 1452 1451 1450 1449 1448 1447 1445 1444
1490 1490 1490 1490 1491 1491 1491 1491 1491 1491 1490 1490 1490 1490 1490 1490 1490 1489 1489 1489 1488 1488 1488 1487 1486 1486 1485 1484 1483 1483 1482 1481 1480 1479 1478 1477 1476 1475 1474 1473 1472 1472 1471 1470 1469 1468 1467 1466 1465 1463 1463 1462 1460 1459 1458 1457 1456 1455 1454 1453 1452 1450 1449 1448 1447 1446 1445 1443 1443
1489 1489 1490 1490 1490 1490 1490 1490 1490 1490 1490 1490 1490 1490 1489 1489 1489 1489 1488 1488 1488 1487 1487 1486 1486 1485 1484 1483 1483 1482 1481 1480 1478 1478 1477 1476 1475 1474 1473 1472 1471 1470 1469 1468 1468 1467 1465 1464 1463 1462 1461 1460 1459 1458 1457 1455 1454 1453 1452 1451 1450 1449 1448 1446 1445 1444 1443 1442 1440
1488 1489 1489 1489 1489 1489 1489 1489 1489 1489 1489 1489 1489 1489 1489 1488 1488 1488 1488 1487 1487 1487 1486 1485 1485 1484 1483 1483 1482 1481 1480 1479 1478 1477 1476 1475 1474 1473 1472 1471 1470 1469 1468 1467 1466 1465 1464 1463 1462 1461 1459 1458 1457 1456 1455 1454 1453 1451 1450 1449 1448 1447 1446 1444 1443 1442 1441 1439 1438
1488 1488 1488 1488 1488 1488 1488 1488 1489 1489 1489 1489 1488 1488 1488 1488 1488 1487 1487 1486 1486 1486 1485 1484 1484 1483 1482 1481 1480 1479 1478 1478 1477 1476 1475 1474 1473 1472 1471 1470 1469 1468 1467 1466 1465 1464 1463 1461 1460 1459 1458 1457 1455 1454 1453 1452 1451 1449 1448 1447 1446 1445 1444 1443 1441 1440 1439 1438 1437
1487 1487 1488 1488 1488 1488 1488 1488 1488 1488 1488 1488 1488 1488 1488 1487 1487 1486 1486 1486 1485 1485 1484 1483 1483 1482 1481 1480 1479 1478 1477 1476 1475 1474 1473 1473 1472 1471 1470 1469 1468 1467 1466 1465 1463 1462 1461 1460 1459 1458 1456 1455 1454 1453 1452 1450 1449 1448 1446 1445 1444 1443 1442 1441 1439 1438 1437 1436 1434
1486 1486 1487 1487 1487 1487 1487 1487 1487 1487 1487 1487 1487 1487 1487 1487 1486 1486 1485 1485 1484 1484 1483 1483 1482 1481 1480 1479 1478 1477 1476 1475 1474 1473 1472 1471 1470 1469 1468 1468 1467 1465 1464 1463 1462 1461 1459 1458 1457 1456 1455 1453 1452 1451 1450 1448 1447 1446 1445 1443 1442 1441 1440 1439 1438 1436 1435 1434 1433
1485 1486 1486 1486 1486 1486 1487 1487 1487 1487 1487 1486 1486 1486 1486 1486 1485 1485 1484 1484 1483 1483 1482 1481 1481 1480 1479 1478 1477 1476 1475 1474 1473 1472 1471 1470 1469 1468 1467 1466 1465 1464 1463 1462 1460 1459 1458 1457 1455 1454 1453 1452 1451 1449 1448 1447 1445 1444 1443 1441 1440 1439 1438 1437 1436 1435 1433 1432 1431
1484 1485 1485 1485 1485 1486 1486 1486 1486 1486 1486 1485 1485 1485 1485 1485 1484 1484 1483 1483 1482 1482 1481 1480 1479 1478 1478 1477 1476 1475 1474 1473 1472 1471 1470 1469 1468 1467 1466 1465 1463 1463 1461 1460 1459 1458 1456 1455 1453 1452 1451 1450 1449 1448 1446 1445 1443 1442 1441 1439 1438 1437 1435 1434 1433 1433 1431 1430 1428
1484 1484 1484 1484 1485 1485 1485 1485 1485 1485 1485 1485 1484 1484 1484 1484 1483 1483 1483 1482 1481 1481 1480 1479 1478 1477 1477 1476 1475 1474 1473 1472 1471 1470 1469 1468 1467 1466 1464 1463 1462 1461 1460 1458 1457 1456 1454 1453 1452 1450 1449 1448 1447 1446 1444 1443 1441 1440 1438 1437 1436 1435 1433 1432 1431 1430 1429 1428 1426
1483 1483 1483 1484 1484 1484 1484 1485 1484 1484 1484 1484 1483 1483 1483 1483 1483 1482 1482 1481 1480 1479 1479 1478 1477 1476 1475 1474 1474 1473 1472 1471 1470 1469 1468 1467 1465 1464 1463 1462 1461 1459 1458 1457 1455 1454 1453 1451 1450 1448 1447 1446 1445 1443 1442 1441 1439 1438 1437 1435 1434 1433 1432 1430 1429 1428 1427 1426 1424
1482 1483 1483 1483 1483 1483 1483 1484 1484 1483 1483 1483 1483 1482 1482 1482 1481 1481 1480 1480 1479 1478 1478 1477 1476 1475 1474 1473 1473 1472 1471 1470 1468 1468 1466 1465 1464 1463 1462 1460 1459 1458 1457 1455 1454 1453 1451 1450 1448 1447 1445 1444 1443 1442 1440 1439 1438 1436 1435 1433 1432 1431 1430 1428 1427 1426 1425 1423 1422
1481 1482 1482 1482 1483 1483 1483 1483 1483 1483 1483 1482 1482 1482 1481 1481 1480 1480 1479 1479 1478 1478 1477 1476 1475 1474 1473 1473 1472 1470 1469 1468 1467 1466 1465 1464 1463 1461 1460 1459 1458 1456 1455 1453 1452 1451 1450 1448 1447 1445 1444 1442 1441 1439 1438 1437 1436 1434 1433 1432 1430 1429 1428 1427 1425 1424 1423 1421 1419
1481 1481 1481 1482 1482 1482 1482 1482 1482 1482 1482 1481 1481 1481 1480 1480 1479 1479 1478 1478 1477 1477 1476 1475 1474 1473 1473 1472 1470 1469 1468 1467 1466 1465 1463 1462 1461 1460 1458 1457 1456 1454 1453 1452 1450 1449 1448 1447 1445 1444 1442 1441 1439 1438 1436 1435 1434 1433 1431 1430 1429 1428 1426 1425 1423 1422 1421 1419 1418
1480 1480 1480 1481 1481 1481 1481 1481 1481 1481 1481 1480 1480 1480 1479 1479 1478 1478 1477 1477 1476 1475 1475 1474 1473 1472 1471 1470 1469 1468 1467 1466 1464 1463 1462 1461 1459 1458 1457 1456 1454 1453 1452 1450 1449 1447 1446 1445 1443 1442 1441 1439 1438 1436 1434 1433 1432 1431 1429 1428 1427 1426 1425 1423 1422 1421 1419 1418 1416
1479 1479 1480 1480 1480 1480 1480 1480 1480 1480 1480 1479 1479 1478 1478 1478 1477 1477 1476 1476 1475 1474 1473 1473 1472 1471 1470 1469 1468 1467 1465 1464 1463 1462 1461 1459 1458 1457 1455 1454 1453 1452 1450 1448 1447 1446 1444 1443 1442 1440 1439 1437 1436 1434 1433 1431 1430 1429 1428 1426 1425 1424 1423 1422 1420 1419 1418 1416 1414
1478 1478 1479 1479 1479 1479 1479 1479 1479 1479 1479 1478 1478 1478 1477 1477 1476 1476 1475 1474 1474 1473 1473 1472 1471 1470 1469 1468 1467 1465 1464 1463 1462 1461 1459 1458 1457 1456 1454 1453 1451 1450 1449 1447 1446 1444 1443 1441 1440 1438 1437 1435 1434 1432 1431 1430 1428 1427 1426 1425 1424 1423 1421 1420 1419 1417 1416 1414 1413
1478 1478 1478 1478 1478 1478 1478 1478 1478 1478 1478 1477 1477 1477 1476 1476 1475 1475 1474 1473 1473 1472 1471 1470 1469 1468 1468 1466 1465 1464 1463 1462 1461 1459 1458 1457 1456 1454 1453 1451 1450 1448 1447 1446 1444 1443 1441 1440 1438 1437 1435 1433 1432 1430 1429 1428 1427 1426 1424 1423 1422 1421 1419 1418 1417 1415 1414 1413 1411
1477 1477 1477 1478 1478 1478 1478 1478 1478 1477 1477 1476 1476 1475 1475 1475 1474 1474 1473 1473 1472 1471 1470 1469 1468 1467 1466 1465 1464 1463 1462 1461 1459 1458 1457 1456 1454 1453 1452 1450 1448 1447 1446 1444 1443 1441 1439 1438 1436 1435 1433 1432 1430 1429 1428 1426 1425 1424 1423 1422 1420 1419 1418 1416 1415 1414 1412 1411 1409
1476 1476 1477 1477 1477 1477 1477 1477 1477 1476 1476 1475 1475 1475 1474 1474 1473 1473 1472 1472 1471 1470 1469 1468 1467 1466 1465 1463 1463 1461 1460 1459 1458 1457 1456 1454 1453 1452 1450 1449 1447 1446 1444 1443 1441 1439 1438 1436 1434 1433 1432 1430 1429 1428 1426 1425 1424 1422 1421 1420 1418 1417 1416 1414 1413 1412 1410 1409 1408
1475 1476 1476 1476 1476 1476 1476 1476 1475 1475 1475 1474 1474 1474 1473 1473 1473 1472 1471 1470 1470 1469 1468 1467 1466 1464 1463 1463 1461 1460 1459 1458 1457 1456 1455 1453 1452 1450 1449 1448 1446 1444 1443 1441 1439 1438 1436 1434 1433 1431 1430 1429 1428 1426 1425 1424 1423 1421 1419 1418 1416 1415 1414 1413 1411 1410 1408 1407 1406
1474 1475 1475 1475 1475 1475 1475 1475 1474 1474 1474 1473 1473 1473 1473 1472 1471 1471 1470 1469 1469 1468 1467 1466 1464 1463 1463 1461 1460 1459 1458 1457 1455 1454 1453 1452 1450 1449 1447 1446 1444 1443 1441 1440 1438 1437 1435 1433 1431 1430 1428 1428 1426 1425 1424 1423 1421 1419 1418 1416 1414 1413 1412 1410 1409 1408 1407 1405 1404
1474 1474 1474 1474 1474 1474 1474 1474 1473 1473 1473 1473 1472 1472 1472 1471 1470 1470 1469 1468 1468 1467 1465 1464 1463 1462 1461 1460 1459 1458 1457 1456 1454 1453 1451 1450 1449 1447 1446 1444 1443 1441 1440 1438 1437 1435 1434 1433 1431 1429 1428 1426 1425 1423 1422 1421 1419 1418 1416 1414 1413 1411 1409 1408 1407 1406 1405 1403 1402
1473 1473 1473 1473 1473 1473 1473 1473 1473 1472 1472 1472 1471 1471 1470 1470 1469 1469 1468 1467 1466 1465 1464 1463 1462 1461 1460 1459 1458 1457 1456 1454 1453 1451 1450 1448 1447 1446 1444 1443 1441 1440 1438 1437 1435 1434 1432 1431 1430 1428 1427 1425 1424 1422 1421 1419 1418 1416 1415 1413 1411 1410 1408 1406 1405 1404 1403 1402 1401
1472 1472 1473 1473 1473 1473 1472 1472 1472 1471 1471 1471 1470 1470 1469 1469 1468 1468 1467 1466 1465 1464 1463 1462 1461 1460 1459 1458 1457 1456 1454 1453 1452 1450 1448 1447 1445 1444 1443 1441 1440 1438 1437 1435 1433 1432 1431 1429 1428 1427 1426 1424 1423 1421 1419 1417 1416 1414 1413 1412 1410 1408 1407 1405 1404 1402 1401 1400 1399
1471 1471 1472 1472 1472 1471 1471 1471 1471 1470 1470 1470 1469 1469 1468 1468 1467 1466 1466 1465 1464 1463 1462 1461 1460 1459 1458 1457 1456 1454 1453 1452 1450 1448 1447 1446 1444 1443 1441 1440 1438 1437 1435 1433 1432 1431 1429 1428 1427 1426 1424 1423 1421 1419 1418 1416 1414 1413 1411 1410 1408 1407 1406 1404 1403 1401 1400 1398 1397
1470 1471 1471 1471 1470 1470 1470 1470 1469 1469 1469 1469 1468 1468 1468 1467 1466 1465 1464 1463 1463 1462 1461 1460 1459 1458 1457 1456 1454 1453 1452 1450 1448 1447 1446 1444 1443 1441 1440 1438 1437 1435 1433 1432 1430 1429 1428 1426 1425 1424 1423 1422 1420 1418 1416 1414 1413 1411 1410 1408 1407 1406 1404 1403 1402 1400 1398 1397 1396
1470 1470 1470 1469 1469 1469 1469 1469 1469 1468 1468 1468 1468 1467 1466 1466 1465 1464 1463 1462 1462 1461 1460 1459 1458 1457 1456 1454 1453 1451 1450 1449 1447 1446 1444 1443 1441 1440 1438 1437 1435 1433 1432 1431 1429 1428 1426 1425 1424 1423 1421 1420 1418 1417 1415 1413 1412 1410 1408 1407 1406 1404 1403 1402 1400 1399 1398 1396 1394
1469 1469 1468 1468 1468 1468 1468 1468 1468 1468 1467 1467 1467 1466 1465 1464 1464 1463 1462 1461 1460 1460 1459 1458 1457 1456 1454 1453 1452 1450 1448 1447 1446 1444 1443 1441 1440 1438 1437 1435 1433 1432 1430 1429 1428 1426 1425 1423 1422 1421 1419 1418 1417 1415 1413 1412 1410 1408 1407 1406 1404 1403 1402 1400 1399 1398 1396 1395 1393
1468 1468 1468 1468 1467 1467 1467 1467 1467 1467 1466 1466 1465 1465 1464 1463 1463 1462 1461 1460 1459 1458 1458 1457 1455 1454 1453 1451 1450 1448 1447 1446 1444 1443 1442 1440 1438 1437 1435 1433 1432 1431 1429 1428 1426 1425 1423 1422 1420 1419 1418 1416 1415 1413 1412 1410 1408 1407 1406 1404 1403 1402 1400 1399 1398 1396 1395 1393 1392
1467 1467 1467 1467 1467 1467 1466 1466 1466 1466 1465 1465 1464 1464 1463 1462 1462 1461 1460 1459 1458 1458 1456 1455 1454 1453 1451 1450 1448 1447 1446 1444 1443 1442 1440 1438 1437 1435 1434 1432 1431 1429 1428 1426 1425 1423 1422 1420 1419 1417 1416 1415 1413 1411 1410 1408 1407 1406 1404 1403 1402 1401 1399 1398 1396 1395 1393 1392 1391
1466 1466 1466 1466 1466 1466 1466 1465 1465 1465 1464 1464 1463 1463 1462 1461 1461 1460 1459 1458 1458 1457 1455 1454 1453 1451 1450 1448 1447 1446 1444 1443 1442 1440 1439 1437 1436 1434 1432 1431 1429 1428 1427 1425 1423 1422 1420 1418 1417 1416 1414 1413 1411 1410 1408 1407 1405 1404 1403 1402 1400 1399 1398 1396 1395 1394 1392 1391 1389
1465 1465 1465 1465 1465 1465 1465 1464 1464 1464 1463 1463 1462 1462 1461 1460 1459 1459 1458 1457 1456 1455 1454 1453 1452 1450 1449 1448 1446 1445 1443 1442 1440 1439 1437 1436 1434 1432 1431 1429 1428 1427 1425 1423 1422 1420 1418 1417 1415 1414 1413 1411 1410 1408 1407 1405 1404 1403 1401 1400 1399 1398 1396 1395 1393 1392 1391 1389 1388
1464 1464 1464 1464 1464 1464 1464 1464 1463 1463 1463 1462 1461 1461 1460 1459 1458 1458 1457 1456 1455 1454 1453 1452 1450 1449 1448 1446 1445 1443 1442 1440 1439 1437 1436 1434 1433 1431 1429 1428 1426 1425 1423 1422 1420 1418 1417 1415 1414 1413 1411 1410 1408 1407 1406 1404 1403 1401 1400 1399 1397 1396 1395 1393 1392 1391 1389 1388 1387
1463 1463 1463 1463 1463 1463 1463 1463 1462 1462 1461 1461 1460 1459 1459 1458 1458 1457 1456 1454 1453 1452 1451 1450 1449 1448 1446 1445 1443 1442 1441 1439 1438 1436 1434 1433 1431 1429 1428 1426 1425 1423 1422 1420 1418 1417 1415 1414 1413 1411 1410 1408 1407 1406 1404 1403 1401 1400 1398 1397 1396 1394 1393 1392 1390 1389 1388 1386 1385
1462 1463 1463 1463 1462 1462 1462 1462 1461 1461 1460 1460 1459 1458 1458 1457 1457 1456 1454 1453 1452 1451 1449 1448 1447 1446 1445 1443 1442 1441 1439 1438 1437 1435 1433 1432 1430 1428 1427 1424 1423 1422 1420 1419 1417 1416 1414 1413 1411 1410 1409 1408 1406 1405 1403 1402 1400 1398 1397 1396 1394 1393 1392 1390 1389 1387 1386 1385 1383
1462 1462 1462 1462 1462 1461 1461 1461 1460 1460 1459 1458 1458 1458 1457 1456 1455 1454 1453 1452 1451 1449 1448 1447 1446 1445 1443 1442 1440 1439 1438 1437 1436 1434 1432 1430 1429 1427 1426 1423 1422 1420 1419 1417 1416 1414 1413 1411 1410 1409 1408 1407 1406 1404 1402 1400 1398 1397 1396 1394 1393 1391 1390 1389 1388 1386 1384 1383 1381
1461 1461 1461 1461 1461 1460 1460 1460 1459 1459 1458 1458 1457 1457 1456 1455 1454 1453 1452 1451 1450 1448 1447 1446 1445 1443 1442 1441 1439 1438 1436 1435 1434 1433 1431 1429 1428 1426 1424 1423 1420 1419 1417 1416 1414 1413 1411 1410 1409 1408 1407 1406 1404 1403 1401 1399 1397 1396 1394 1393 1391 1390 1388 1387 1386 1385 1383 1381 1379
1460 1460 1460 1460 1460 1459 1459 1459 1458 1458 1457 1457 1456 1455 1455 1454 1453 1452 1451 1450 1448 1447 1446 1445 1443 1442 1441 1439 1438 1436 1435 1433 1433 1431 1430 1428 1427 1425 1423 1421 1419 1417 1416 1414 1413 1411 1410 1409 1408 1407 1406 1405 1403 1402 1400 1398 1396 1394 1393 1391 1390 1389 1387 1385 1384 1383 1381 1378 1376